Flag for Canada Weather past 2 weeks in Strathcona County, Alberta, Canada

Now
45 °F

Cool.


Feels Like: 42 °F
Forecast: 41 / 53 °F
Wind: 6 mph from Northeast

Location: Edmonton Municipal

Current Time: Sep 4, 2015 at 5:00:23 AM

Latest Report: Sep 4, 2015 at 4:00 AM


Visibility: N/A

Pressure: 30.14 "Hg (27.58 "Hg at 728m altitude)

Humidity: 80%

Dew point: 39 °F

Location of Strathcona CountyLocation

Historic Weather in Strathcona County — Graph

°F

Strathcona County temperature yesterday

Maximum temperature yesterday: 61 °F (at 6:00 PM)
Minimum temperature yesterday: 43 °F (at 6:00 AM)
Average temperature yesterday: 51 °F

Past Weeks' High & Low Weather Summary

 TemperatureHumidityPressure
High83 °F (Aug 28, 5:00 PM)92% (Aug 28, 6:00 AM)30.19 "Hg (Aug 28, 6:00 AM)
Low43 °F (Aug 22, 4:00 AM)20% (Aug 31, 3:00 PM)29.40 "Hg (Aug 29, 9:00 PM)
Average61 °F57%29.82 "Hg
* Reported Aug 20 4:00 AM — Sep 4 4:00 AM, Strathcona County, Weather by CustomWeather, © 2015

Note: Actual official high and low records may vary slightly from our data, if they occured in-between our weather recording intervals... More about our weather records

Advertising

Strathcona County weather history for previous 24 hours

 ConditionsComfort  
Time TempWeatherWind HumidityBarometerVisibility
4:00 AM
Fri, Sep 4
45 °FCool.6 mph80%30.14 "HgN/A
3:00 AM45 °FCool.7 mph77%30.13 "HgN/A
2:00 AM45 °FCool.9 mph82%30.11 "HgN/A
1:00 AM46 °FCool.9 mph79%30.09 "HgN/A
12:00 AM47 °FCool.8 mph75%30.09 "HgN/A
11:00 PM
Thu, Sep 3
48 °FCool.7 mph71%30.08 "HgN/A
10:00 PM51 °FCool.8 mph64%30.06 "HgN/A
9:00 PM52 °FCool.8 mph59%30.06 "HgN/A
8:00 PM55 °FCool.6 mph50%30.03 "HgN/A
7:00 PM57 °FRefreshingly cool.10 mph43%30.01 "HgN/A
6:00 PM61 °FRefreshingly cool.6 mph36%29.99 "HgN/A
5:00 PM60 °FRefreshingly cool.5 mph39%29.99 "HgN/A
4:00 PM56 °FRefreshingly cool.7 mph47%29.99 "HgN/A
3:00 PM59 °FRefreshingly cool.7 mph46%29.99 "HgN/A
2:00 PM59 °FRefreshingly cool.7 mph51%30.00 "HgN/A
1:00 PM56 °FRefreshingly cool.6 mph57%30.01 "HgN/A
12:00 PM54 °FCool.7 mph65%29.99 "HgN/A
11:00 AM50 °FCool.8 mph71%30.00 "HgN/A
10:00 AM48 °FCool.8 mph70%29.99 "HgN/A
9:00 AM45 °FCool.7 mph82%29.98 "HgN/A
8:00 AM43 °FQuite cool.9 mph85%29.96 "HgN/A
7:00 AM43 °FQuite cool.7 mph87%29.94 "HgN/A
6:00 AM43 °FQuite cool.5 mph91%29.92 "HgN/A
5:00 AM44 °FQuite cool.8 mph91%29.90 "HgN/A
Weather by CustomWeather, © 2015

See weather overviewHow to use our weather pages